Year,Month,Day,Hour,Minute,Value (Times are PST for temperature in C)
2007,09,14,00,00,12.90
2007,09,14,00,01,12.90
2007,09,14,00,02,12.90
2007,09,14,00,03,12.90
2007,09,14,00,04,12.90
2007,09,14,00,05,12.90
2007,09,14,00,06,12.90
2007,09,14,00,07,12.90
2007,09,14,00,08,12.90
2007,09,14,00,09,12.90
2007,09,14,00,10,12.90
2007,09,14,00,11,12.90
2007,09,14,00,12,12.90
2007,09,14,00,13,12.90
2007,09,14,00,14,12.90
2007,09,14,00,15,12.90
2007,09,14,00,16,12.90
2007,09,14,00,17,12.90
2007,09,14,00,18,13.00
2007,09,14,00,19,13.00
2007,09,14,00,20,13.00
2007,09,14,00,21,13.00
2007,09,14,00,22,12.90
2007,09,14,00,23,12.90
2007,09,14,00,24,12.90
2007,09,14,00,25,12.90
2007,09,14,00,26,12.90
2007,09,14,00,27,12.90
2007,09,14,00,28,12.90
2007,09,14,00,29,12.90
2007,09,14,00,30,12.90
2007,09,14,00,31,12.90
2007,09,14,00,32,12.90
2007,09,14,00,33,12.90
2007,09,14,00,34,12.90
2007,09,14,00,35,12.90
2007,09,14,00,36,12.90
2007,09,14,00,37,12.90
2007,09,14,00,38,12.90
2007,09,14,00,39,12.90
2007,09,14,00,40,12.80
2007,09,14,00,41,12.80
2007,09,14,00,42,12.80
2007,09,14,00,43,12.70
2007,09,14,00,44,12.70
2007,09,14,00,45,12.70
2007,09,14,00,46,12.70
2007,09,14,00,47,12.60
2007,09,14,00,48,12.60
2007,09,14,00,49,12.60
2007,09,14,00,50,12.50
2007,09,14,00,51,12.50
2007,09,14,00,52,12.50
2007,09,14,00,53,12.50
2007,09,14,00,54,12.40
2007,09,14,00,55,12.40
2007,09,14,00,56,12.40
2007,09,14,00,57,12.40
2007,09,14,00,58,12.40
2007,09,14,00,59,12.30
2007,09,14,01,00,12.40
2007,09,14,01,01,12.30
2007,09,14,01,02,12.30
2007,09,14,01,03,12.40
2007,09,14,01,04,12.40
2007,09,14,01,05,12.40
2007,09,14,01,06,12.40
2007,09,14,01,07,12.40
2007,09,14,01,08,12.30
2007,09,14,01,09,12.30
2007,09,14,01,10,12.20
2007,09,14,01,11,12.20
2007,09,14,01,12,12.10
2007,09,14,01,13,12.10
2007,09,14,01,14,12.00
2007,09,14,01,15,11.90
2007,09,14,01,16,11.90
2007,09,14,01,17,11.80
2007,09,14,01,18,11.80
2007,09,14,01,19,11.80
2007,09,14,01,20,11.70
2007,09,14,01,21,11.70
2007,09,14,01,22,11.70
2007,09,14,01,23,11.70
2007,09,14,01,24,11.60
2007,09,14,01,25,11.70
2007,09,14,01,26,11.70
2007,09,14,01,27,11.60
2007,09,14,01,28,11.60
2007,09,14,01,29,11.60
2007,09,14,01,30,11.70
2007,09,14,01,31,11.60
2007,09,14,01,32,11.60
2007,09,14,01,33,11.60
2007,09,14,01,34,11.60
2007,09,14,01,35,11.60
2007,09,14,01,36,11.60
2007,09,14,01,37,11.60
2007,09,14,01,38,11.50
2007,09,14,01,39,11.60
2007,09,14,01,40,11.60
2007,09,14,01,41,11.60
2007,09,14,01,42,11.60
2007,09,14,01,43,11.60
2007,09,14,01,44,11.60
2007,09,14,01,45,11.60
2007,09,14,01,46,11.60
2007,09,14,01,47,11.70
2007,09,14,01,48,11.70
2007,09,14,01,49,11.70
2007,09,14,01,50,11.70
2007,09,14,01,51,11.80
2007,09,14,01,52,11.70
2007,09,14,01,53,11.70
2007,09,14,01,54,11.70
2007,09,14,01,55,11.70
2007,09,14,01,56,11.70
2007,09,14,01,57,11.70
2007,09,14,01,58,11.70
2007,09,14,01,59,11.70
2007,09,14,02,00,11.70
2007,09,14,02,01,11.70
2007,09,14,02,02,11.70
2007,09,14,02,03,11.70
2007,09,14,02,04,11.80
2007,09,14,02,05,11.80
2007,09,14,02,06,11.80
2007,09,14,02,07,11.80
2007,09,14,02,08,11.80
2007,09,14,02,09,11.70
2007,09,14,02,10,11.70
2007,09,14,02,11,11.60
2007,09,14,02,12,11.60
2007,09,14,02,13,11.60
2007,09,14,02,14,11.50
2007,09,14,02,15,11.40
2007,09,14,02,16,11.40
2007,09,14,02,17,11.40
2007,09,14,02,18,11.30
2007,09,14,02,19,11.30
2007,09,14,02,20,11.30
2007,09,14,02,21,11.20
2007,09,14,02,22,11.20
2007,09,14,02,23,11.20
2007,09,14,02,24,11.20
2007,09,14,02,25,11.20
2007,09,14,02,26,11.20
2007,09,14,02,27,11.30
2007,09,14,02,28,11.30
2007,09,14,02,29,11.30
2007,09,14,02,30,11.30
2007,09,14,02,31,11.20
2007,09,14,02,32,11.20
2007,09,14,02,33,11.20
2007,09,14,02,34,11.20
2007,09,14,02,35,11.10
2007,09,14,02,36,11.10
2007,09,14,02,37,11.10
2007,09,14,02,38,11.00
2007,09,14,02,39,11.00
2007,09,14,02,40,11.00
2007,09,14,02,41,11.00
2007,09,14,02,42,10.90
2007,09,14,02,43,10.90
2007,09,14,02,44,10.90
2007,09,14,02,45,10.90
2007,09,14,02,46,10.90
2007,09,14,02,47,10.90
2007,09,14,02,48,11.00
2007,09,14,02,49,10.90
2007,09,14,02,50,10.90
2007,09,14,02,51,10.90
2007,09,14,02,52,10.90
2007,09,14,02,53,10.90
2007,09,14,02,54,10.90
2007,09,14,02,55,10.80
2007,09,14,02,56,10.80
2007,09,14,02,57,10.80
2007,09,14,02,58,10.80
2007,09,14,02,59,10.80
2007,09,14,03,00,10.80
2007,09,14,03,01,10.80
2007,09,14,03,02,10.80
2007,09,14,03,03,10.80
2007,09,14,03,04,10.80
2007,09,14,03,05,10.80
2007,09,14,03,06,10.90
2007,09,14,03,07,11.00
2007,09,14,03,08,11.00
2007,09,14,03,09,11.10
2007,09,14,03,10,11.10
2007,09,14,03,11,11.20
2007,09,14,03,12,11.10
2007,09,14,03,13,11.10
2007,09,14,03,14,11.10
2007,09,14,03,15,11.00
2007,09,14,03,16,11.00
2007,09,14,03,17,10.90
2007,09,14,03,18,10.90
2007,09,14,03,19,10.80
2007,09,14,03,20,10.80
2007,09,14,03,21,10.80
2007,09,14,03,22,10.70
2007,09,14,03,23,10.70
2007,09,14,03,24,10.60
2007,09,14,03,25,10.60
2007,09,14,03,26,10.60
2007,09,14,03,27,10.50
2007,09,14,03,28,10.50
2007,09,14,03,29,10.40
2007,09,14,03,30,10.40
2007,09,14,03,31,10.40
2007,09,14,03,32,10.30
2007,09,14,03,33,10.30
2007,09,14,03,34,10.30
2007,09,14,03,35,10.30
2007,09,14,03,36,10.20
2007,09,14,03,37,10.20
2007,09,14,03,38,10.20
2007,09,14,03,39,10.20
2007,09,14,03,40,10.10
2007,09,14,03,41,10.10
2007,09,14,03,42,10.10
2007,09,14,03,43,10.10
2007,09,14,03,44,10.00
2007,09,14,03,45,10.00
2007,09,14,03,46,10.00
2007,09,14,03,47,10.00
2007,09,14,03,48,10.00
2007,09,14,03,49,9.90
2007,09,14,03,50,9.90
2007,09,14,03,51,9.90
2007,09,14,03,52,9.90
2007,09,14,03,53,9.80
2007,09,14,03,54,9.80
2007,09,14,03,55,9.80
2007,09,14,03,56,9.80
2007,09,14,03,57,9.80
2007,09,14,03,58,9.80
2007,09,14,03,59,9.80
2007,09,14,04,00,9.80
2007,09,14,04,01,9.80
2007,09,14,04,02,9.80
2007,09,14,04,03,9.70
2007,09,14,04,04,9.70
2007,09,14,04,05,9.70
2007,09,14,04,06,9.70
2007,09,14,04,07,9.70
2007,09,14,04,08,9.70
2007,09,14,04,09,9.70
2007,09,14,04,10,9.70
2007,09,14,04,11,9.70
2007,09,14,04,12,9.70
2007,09,14,04,13,9.70
2007,09,14,04,14,9.70
2007,09,14,04,15,9.70
2007,09,14,04,16,9.70
2007,09,14,04,17,9.60
2007,09,14,04,18,9.60
2007,09,14,04,19,9.60
2007,09,14,04,20,9.60
2007,09,14,04,21,9.60
2007,09,14,04,22,9.50
2007,09,14,04,23,9.50
2007,09,14,04,24,9.50
2007,09,14,04,25,9.40
2007,09,14,04,26,9.40
2007,09,14,04,27,9.40
2007,09,14,04,28,9.50
2007,09,14,04,29,9.50
2007,09,14,04,30,9.50
2007,09,14,04,31,9.50
2007,09,14,04,32,9.60
2007,09,14,04,33,9.60
2007,09,14,04,34,9.60
2007,09,14,04,35,9.50
2007,09,14,04,36,9.50
2007,09,14,04,37,9.50
2007,09,14,04,38,9.50
2007,09,14,04,39,9.50
2007,09,14,04,40,9.50
2007,09,14,04,41,9.50
2007,09,14,04,42,9.50
2007,09,14,04,43,9.50
2007,09,14,04,44,9.50
2007,09,14,04,45,9.50
2007,09,14,04,46,9.50
2007,09,14,04,47,9.50
2007,09,14,04,48,9.50
2007,09,14,04,49,9.50
2007,09,14,04,50,9.50
2007,09,14,04,51,9.40
2007,09,14,04,52,9.40
2007,09,14,04,53,9.40
2007,09,14,04,54,9.40
2007,09,14,04,55,9.40
2007,09,14,04,56,9.50
2007,09,14,04,57,9.50
2007,09,14,04,58,9.40
2007,09,14,04,59,9.40
2007,09,14,05,00,9.40
2007,09,14,05,01,9.40
2007,09,14,05,02,9.40
2007,09,14,05,03,9.40
2007,09,14,05,04,9.30
2007,09,14,05,05,9.30
2007,09,14,05,06,9.30
2007,09,14,05,07,9.30
2007,09,14,05,08,9.30
2007,09,14,05,09,9.30
2007,09,14,05,10,9.30
2007,09,14,05,11,9.30
2007,09,14,05,12,9.30
2007,09,14,05,13,9.30
2007,09,14,05,14,9.30
2007,09,14,05,15,9.30
2007,09,14,05,16,9.40
2007,09,14,05,17,9.40
2007,09,14,05,18,9.40
2007,09,14,05,19,9.30
2007,09,14,05,20,9.30
2007,09,14,05,21,9.30
2007,09,14,05,22,9.30
2007,09,14,05,23,9.20
2007,09,14,05,24,9.20
2007,09,14,05,25,9.20
2007,09,14,05,26,9.20
2007,09,14,05,27,9.20
2007,09,14,05,28,9.20
2007,09,14,05,29,9.10
2007,09,14,05,30,9.10
2007,09,14,05,31,9.10
2007,09,14,05,32,9.10
2007,09,14,05,33,9.10
2007,09,14,05,34,9.10
2007,09,14,05,35,9.10
2007,09,14,05,36,9.00
2007,09,14,05,37,9.00
2007,09,14,05,38,9.00
2007,09,14,05,39,9.00
2007,09,14,05,40,9.00
2007,09,14,05,41,9.00
2007,09,14,05,42,9.00
2007,09,14,05,43,9.00
2007,09,14,05,44,9.10
2007,09,14,05,45,9.00
2007,09,14,05,46,9.00
2007,09,14,05,47,9.00
2007,09,14,05,48,9.00
2007,09,14,05,49,9.00
2007,09,14,05,50,9.00
2007,09,14,05,51,9.00
2007,09,14,05,52,8.90
2007,09,14,05,53,8.90
2007,09,14,05,54,8.90
2007,09,14,05,55,8.90
2007,09,14,05,56,8.90
2007,09,14,05,57,8.90
2007,09,14,05,58,8.90
2007,09,14,05,59,8.90
2007,09,14,06,00,8.80
2007,09,14,06,01,8.80
2007,09,14,06,02,8.80
2007,09,14,06,03,8.80
2007,09,14,06,04,8.80
2007,09,14,06,05,8.80
2007,09,14,06,06,8.80
2007,09,14,06,07,8.80
2007,09,14,06,08,8.80
2007,09,14,06,09,8.80
2007,09,14,06,10,8.80
2007,09,14,06,11,8.80
2007,09,14,06,12,8.80
2007,09,14,06,13,8.70
2007,09,14,06,14,8.70
2007,09,14,06,15,8.70
2007,09,14,06,16,8.70
2007,09,14,06,17,8.70
2007,09,14,06,18,8.70
2007,09,14,06,19,8.80
2007,09,14,06,20,8.80
2007,09,14,06,21,8.90
2007,09,14,06,22,8.90
2007,09,14,06,23,9.00
2007,09,14,06,24,9.00
2007,09,14,06,25,9.00
2007,09,14,06,26,9.00
2007,09,14,06,27,9.00
2007,09,14,06,28,9.00
2007,09,14,06,29,9.00
2007,09,14,06,30,8.90
2007,09,14,06,31,8.90
2007,09,14,06,32,8.80
2007,09,14,06,33,8.80
2007,09,14,06,34,8.70
2007,09,14,06,35,8.70
2007,09,14,06,36,8.70
2007,09,14,06,37,8.70
2007,09,14,06,38,8.70
2007,09,14,06,39,8.70
2007,09,14,06,40,8.70
2007,09,14,06,41,8.70
2007,09,14,06,42,8.70
2007,09,14,06,43,8.70
2007,09,14,06,44,8.70
2007,09,14,06,45,8.70
2007,09,14,06,46,8.70
2007,09,14,06,47,8.70
2007,09,14,06,48,8.80
2007,09,14,06,49,8.80
2007,09,14,06,50,8.80
2007,09,14,06,51,8.70
2007,09,14,06,52,8.70
2007,09,14,06,53,8.70
2007,09,14,06,54,8.70
2007,09,14,06,55,8.60
2007,09,14,06,56,8.60
2007,09,14,06,57,8.60
2007,09,14,06,58,8.60
2007,09,14,06,59,8.60
2007,09,14,07,00,8.60
2007,09,14,07,01,8.60
2007,09,14,07,02,8.70
2007,09,14,07,03,8.70
2007,09,14,07,04,8.70
2007,09,14,07,05,8.80
2007,09,14,07,06,8.80
2007,09,14,07,07,8.80
2007,09,14,07,08,8.90
2007,09,14,07,09,8.90
2007,09,14,07,10,8.80
2007,09,14,07,11,8.80
2007,09,14,07,12,8.80
2007,09,14,07,13,8.70
2007,09,14,07,14,8.70
2007,09,14,07,15,8.60
2007,09,14,07,16,8.60
2007,09,14,07,17,8.60
2007,09,14,07,18,8.50
2007,09,14,07,19,8.50
2007,09,14,07,20,8.50
2007,09,14,07,21,8.50
2007,09,14,07,22,8.50
2007,09,14,07,23,8.50
2007,09,14,07,24,8.50
2007,09,14,07,25,8.60
2007,09,14,07,26,8.60
2007,09,14,07,27,8.60
2007,09,14,07,28,8.60
2007,09,14,07,29,8.60
2007,09,14,07,30,8.60
2007,09,14,07,31,8.60
2007,09,14,07,32,8.70
2007,09,14,07,33,8.70
2007,09,14,07,34,8.70
2007,09,14,07,35,8.70
2007,09,14,07,36,8.70
2007,09,14,07,37,8.70
2007,09,14,07,38,8.70
2007,09,14,07,39,8.70
2007,09,14,07,40,8.70
2007,09,14,07,41,8.70
2007,09,14,07,42,8.70
2007,09,14,07,43,8.80
2007,09,14,07,44,8.80
2007,09,14,07,45,8.80
2007,09,14,07,46,8.80
2007,09,14,07,47,8.80
2007,09,14,07,48,8.80
2007,09,14,07,49,8.80
2007,09,14,07,50,8.80
2007,09,14,07,51,8.90
2007,09,14,07,52,8.90
2007,09,14,07,53,8.90
2007,09,14,07,54,9.00
2007,09,14,07,55,9.00
2007,09,14,07,56,9.10
2007,09,14,07,57,9.10
2007,09,14,07,58,9.10
2007,09,14,07,59,9.10
2007,09,14,08,00,9.20
2007,09,14,08,01,9.20
2007,09,14,08,02,9.30
2007,09,14,08,03,9.30
2007,09,14,08,04,9.40
2007,09,14,08,05,9.40
2007,09,14,08,06,9.50
2007,09,14,08,07,9.60
2007,09,14,08,08,9.60
2007,09,14,08,09,9.70
2007,09,14,08,10,9.70
2007,09,14,08,11,9.80
2007,09,14,08,12,9.80
2007,09,14,08,13,9.90
2007,09,14,08,14,9.90
2007,09,14,08,15,10.00
2007,09,14,08,16,10.10
2007,09,14,08,17,10.10
2007,09,14,08,18,10.20
2007,09,14,08,19,10.40
2007,09,14,08,20,10.50
2007,09,14,08,21,10.60
2007,09,14,08,22,10.80
2007,09,14,08,23,10.90
2007,09,14,08,24,11.00
2007,09,14,08,25,11.10
2007,09,14,08,26,11.20
2007,09,14,08,27,11.30
2007,09,14,08,28,11.40
2007,09,14,08,29,11.40
2007,09,14,08,30,11.50
2007,09,14,08,31,11.50
2007,09,14,08,32,11.60
2007,09,14,08,33,11.60
2007,09,14,08,34,11.60
2007,09,14,08,35,11.60
2007,09,14,08,36,11.60
2007,09,14,08,37,11.60
2007,09,14,08,38,11.60
2007,09,14,08,39,11.60
2007,09,14,08,40,11.60
2007,09,14,08,41,11.60
2007,09,14,08,42,11.60
2007,09,14,08,43,11.60
2007,09,14,08,44,11.60
2007,09,14,08,45,11.60
2007,09,14,08,46,11.60
2007,09,14,08,47,11.70
2007,09,14,08,48,11.70
2007,09,14,08,49,11.70
2007,09,14,08,50,11.70
2007,09,14,08,51,11.70
2007,09,14,08,52,11.70
2007,09,14,08,53,11.70
2007,09,14,08,54,11.70
2007,09,14,08,55,11.70
2007,09,14,08,56,11.70
2007,09,14,08,57,11.70
2007,09,14,08,58,11.70
2007,09,14,08,59,11.70
2007,09,14,09,00,11.70
2007,09,14,09,01,11.70
2007,09,14,09,02,11.80
2007,09,14,09,03,11.80
2007,09,14,09,04,11.80
2007,09,14,09,05,11.80
2007,09,14,09,06,11.80
2007,09,14,09,07,11.90
2007,09,14,09,08,11.90
2007,09,14,09,09,11.90
2007,09,14,09,10,11.90
2007,09,14,09,11,11.90
2007,09,14,09,12,11.90
2007,09,14,09,13,12.00
2007,09,14,09,14,12.00
2007,09,14,09,15,12.10
2007,09,14,09,16,12.10
2007,09,14,09,17,12.10
2007,09,14,09,18,12.20
2007,09,14,09,19,12.20
2007,09,14,09,20,12.20
2007,09,14,09,21,12.20
2007,09,14,09,22,12.20
2007,09,14,09,23,12.20
2007,09,14,09,24,12.20
2007,09,14,09,25,12.20
2007,09,14,09,26,12.20
2007,09,14,09,27,12.20
2007,09,14,09,28,12.20
2007,09,14,09,29,12.20
2007,09,14,09,30,12.10
2007,09,14,09,31,12.10
2007,09,14,09,32,12.10
2007,09,14,09,33,12.10
2007,09,14,09,34,12.10
2007,09,14,09,35,12.10
2007,09,14,09,36,12.10
2007,09,14,09,37,12.10
2007,09,14,09,38,12.10
2007,09,14,09,39,12.10
2007,09,14,09,40,12.20
2007,09,14,09,41,12.20
2007,09,14,09,42,12.10
2007,09,14,09,43,12.10
2007,09,14,09,44,12.10
2007,09,14,09,45,12.10
2007,09,14,09,46,12.10
2007,09,14,09,47,12.20
2007,09,14,09,48,12.20
2007,09,14,09,49,12.20
2007,09,14,09,50,12.10
2007,09,14,09,51,12.10
2007,09,14,09,52,12.10
2007,09,14,09,53,12.20
2007,09,14,09,54,12.20
2007,09,14,09,55,12.20
2007,09,14,09,56,12.20
2007,09,14,09,57,12.20
2007,09,14,09,58,12.30
2007,09,14,09,59,12.30
2007,09,14,10,00,12.20
2007,09,14,10,01,12.20
2007,09,14,10,02,12.20
2007,09,14,10,03,12.20
2007,09,14,10,04,12.20
2007,09,14,10,05,12.20
2007,09,14,10,06,12.20
2007,09,14,10,07,12.20
2007,09,14,10,08,12.20
2007,09,14,10,09,12.20
2007,09,14,10,10,12.30
2007,09,14,10,11,12.30
2007,09,14,10,12,12.30
2007,09,14,10,13,12.40
2007,09,14,10,14,12.40
2007,09,14,10,15,12.40
2007,09,14,10,16,12.50
2007,09,14,10,17,12.50
2007,09,14,10,18,12.40
2007,09,14,10,19,12.40
2007,09,14,10,20,12.50
2007,09,14,10,21,12.50
2007,09,14,10,22,12.50
2007,09,14,10,23,12.50
2007,09,14,10,24,12.60
2007,09,14,10,25,12.60
2007,09,14,10,26,12.60
2007,09,14,10,27,12.70
2007,09,14,10,28,12.70
2007,09,14,10,29,12.60
2007,09,14,10,30,12.60
2007,09,14,10,31,12.60
2007,09,14,10,32,12.60
2007,09,14,10,33,12.60
2007,09,14,10,34,12.60
2007,09,14,10,35,12.60
2007,09,14,10,36,12.50
2007,09,14,10,37,12.40
2007,09,14,10,38,12.40
2007,09,14,10,39,12.40
2007,09,14,10,40,12.40
2007,09,14,10,41,12.40
2007,09,14,10,42,12.50
2007,09,14,10,43,12.50
2007,09,14,10,44,12.50
2007,09,14,10,45,12.50
2007,09,14,10,46,12.40
2007,09,14,10,47,12.40
2007,09,14,10,48,12.50
2007,09,14,10,49,12.50
2007,09,14,10,50,12.60
2007,09,14,10,51,12.60
2007,09,14,10,52,12.60
2007,09,14,10,53,12.60
2007,09,14,10,54,12.60
2007,09,14,10,55,12.70
2007,09,14,10,56,12.70
2007,09,14,10,57,12.70
2007,09,14,10,58,12.70
2007,09,14,10,59,12.80
2007,09,14,11,00,12.80
2007,09,14,11,01,12.80
2007,09,14,11,02,12.80
2007,09,14,11,03,12.90
2007,09,14,11,04,13.00
2007,09,14,11,05,13.00
2007,09,14,11,06,13.00
2007,09,14,11,07,13.00
2007,09,14,11,08,12.90
2007,09,14,11,09,13.00
2007,09,14,11,10,13.00
2007,09,14,11,11,13.10
2007,09,14,11,12,13.10
2007,09,14,11,13,13.10
2007,09,14,11,14,13.20
2007,09,14,11,15,13.20
2007,09,14,11,16,13.20
2007,09,14,11,17,13.20
2007,09,14,11,18,13.20
2007,09,14,11,19,13.30
2007,09,14,11,20,13.30
2007,09,14,11,21,13.30
2007,09,14,11,22,13.30
2007,09,14,11,23,13.40
2007,09,14,11,24,13.40
2007,09,14,11,25,13.50
2007,09,14,11,26,13.50
2007,09,14,11,27,13.50
2007,09,14,11,28,13.50
2007,09,14,11,29,13.60
2007,09,14,11,30,13.60
2007,09,14,11,31,13.50
2007,09,14,11,32,13.40
2007,09,14,11,33,13.40
2007,09,14,11,34,13.30
2007,09,14,11,35,13.20
2007,09,14,11,36,13.20
2007,09,14,11,37,13.20
2007,09,14,11,38,13.20
2007,09,14,11,39,13.20
2007,09,14,11,40,13.20
2007,09,14,11,41,13.30
2007,09,14,11,42,13.40
2007,09,14,11,43,13.50
2007,09,14,11,44,13.60
2007,09,14,11,45,13.80
2007,09,14,11,46,13.90
2007,09,14,11,47,13.90
2007,09,14,11,48,13.90
2007,09,14,11,49,14.00
2007,09,14,11,50,14.10
2007,09,14,11,51,14.20
2007,09,14,11,52,14.40
2007,09,14,11,53,14.50
2007,09,14,11,54,14.60
2007,09,14,11,55,14.70
2007,09,14,11,56,14.90
2007,09,14,11,57,15.00
2007,09,14,11,58,15.00
2007,09,14,11,59,15.00
2007,09,14,12,00,14.90
2007,09,14,12,01,14.80
2007,09,14,12,02,14.80
2007,09,14,12,03,14.80
2007,09,14,12,04,14.80
2007,09,14,12,05,14.90
2007,09,14,12,06,15.00
2007,09,14,12,07,15.00
2007,09,14,12,08,15.00
2007,09,14,12,09,15.00
2007,09,14,12,10,14.90
2007,09,14,12,11,14.80
2007,09,14,12,12,14.90
2007,09,14,12,13,14.80
2007,09,14,12,14,14.80
2007,09,14,12,15,14.70
2007,09,14,12,16,14.60
2007,09,14,12,17,14.50
2007,09,14,12,18,14.50
2007,09,14,12,19,14.50
2007,09,14,12,20,14.50
2007,09,14,12,21,14.60
2007,09,14,12,22,14.60
2007,09,14,12,23,14.70
2007,09,14,12,24,14.70
2007,09,14,12,25,14.80
2007,09,14,12,26,14.80
2007,09,14,12,27,14.80
2007,09,14,12,28,14.90
2007,09,14,12,29,15.00
2007,09,14,12,30,15.00
2007,09,14,12,31,15.00
2007,09,14,12,32,15.20
2007,09,14,12,33,15.30
2007,09,14,12,34,15.40
2007,09,14,12,35,15.50
2007,09,14,12,36,15.60
2007,09,14,12,37,15.60
2007,09,14,12,38,15.60
2007,09,14,12,39,15.60
2007,09,14,12,40,15.60
2007,09,14,12,41,15.60
2007,09,14,12,42,15.60
2007,09,14,12,43,15.50
2007,09,14,12,44,15.50
2007,09,14,12,45,15.40
2007,09,14,12,46,15.40
2007,09,14,12,47,15.30
2007,09,14,12,48,15.30
2007,09,14,12,49,15.30
2007,09,14,12,50,15.20
2007,09,14,12,51,15.00
2007,09,14,12,52,15.00
2007,09,14,12,53,15.00
2007,09,14,12,54,15.00
2007,09,14,12,55,14.90
2007,09,14,12,56,14.90
2007,09,14,12,57,14.90
2007,09,14,12,58,14.90
2007,09,14,12,59,15.00
2007,09,14,13,00,15.00
2007,09,14,13,01,15.00
2007,09,14,13,02,15.00
2007,09,14,13,03,15.00
2007,09,14,13,04,14.90
2007,09,14,13,05,14.80
2007,09,14,13,06,14.80
2007,09,14,13,07,14.80
2007,09,14,13,08,14.80
2007,09,14,13,09,14.80
2007,09,14,13,10,14.90
2007,09,14,13,11,15.00
2007,09,14,13,12,15.00
2007,09,14,13,13,15.10
2007,09,14,13,14,15.30
2007,09,14,13,15,15.40
2007,09,14,13,16,15.50
2007,09,14,13,17,15.50
2007,09,14,13,18,15.60
2007,09,14,13,19,15.70
2007,09,14,13,20,15.70
2007,09,14,13,21,15.70
2007,09,14,13,22,15.80
2007,09,14,13,23,15.80
2007,09,14,13,24,15.80
2007,09,14,13,25,15.90
2007,09,14,13,26,15.90
2007,09,14,13,27,15.90
2007,09,14,13,28,16.00
2007,09,14,13,29,16.10
2007,09,14,13,30,16.10
2007,09,14,13,31,16.10
2007,09,14,13,32,16.10
2007,09,14,13,33,16.10
2007,09,14,13,34,16.10
2007,09,14,13,35,16.10
2007,09,14,13,36,16.00
2007,09,14,13,37,16.00
2007,09,14,13,38,15.90
2007,09,14,13,39,15.90
2007,09,14,13,40,15.90
2007,09,14,13,41,15.80
2007,09,14,13,42,15.70
2007,09,14,13,43,15.70
2007,09,14,13,44,15.60
2007,09,14,13,45,15.50
2007,09,14,13,46,15.50
2007,09,14,13,47,15.40
2007,09,14,13,48,15.40
2007,09,14,13,49,15.50
2007,09,14,13,50,15.50
2007,09,14,13,51,15.60
2007,09,14,13,52,15.60
2007,09,14,13,53,15.60
2007,09,14,13,54,15.70
2007,09,14,13,55,15.70
2007,09,14,13,56,15.70
2007,09,14,13,57,15.60
2007,09,14,13,58,15.60
2007,09,14,13,59,15.50
2007,09,14,14,00,15.40
2007,09,14,14,01,15.30
2007,09,14,14,02,15.30
2007,09,14,14,03,15.20
2007,09,14,14,04,15.20
2007,09,14,14,05,15.20
2007,09,14,14,06,15.30
2007,09,14,14,07,15.40
2007,09,14,14,08,15.40
2007,09,14,14,09,15.40
2007,09,14,14,10,15.50
2007,09,14,14,11,15.60
2007,09,14,14,12,15.70
2007,09,14,14,13,15.70
2007,09,14,14,14,15.70
2007,09,14,14,15,15.70
2007,09,14,14,16,15.70
2007,09,14,14,17,15.70
2007,09,14,14,18,15.70
2007,09,14,14,19,15.80
2007,09,14,14,20,15.90
2007,09,14,14,21,15.90
2007,09,14,14,22,15.90
2007,09,14,14,23,16.00
2007,09,14,14,24,16.00
2007,09,14,14,25,15.90
2007,09,14,14,26,15.80
2007,09,14,14,27,15.80
2007,09,14,14,28,15.80
2007,09,14,14,29,15.90
2007,09,14,14,30,15.90
2007,09,14,14,31,16.00
2007,09,14,14,32,16.10
2007,09,14,14,33,16.10
2007,09,14,14,34,16.10
2007,09,14,14,35,16.20
2007,09,14,14,36,16.30
2007,09,14,14,37,16.30
2007,09,14,14,38,16.30
2007,09,14,14,39,16.30
2007,09,14,14,40,16.30
2007,09,14,14,41,16.30
2007,09,14,14,42,16.20
2007,09,14,14,43,16.20
2007,09,14,14,44,16.20
2007,09,14,14,45,16.20
2007,09,14,14,46,16.30
2007,09,14,14,47,16.30
2007,09,14,14,48,16.40
2007,09,14,14,49,16.40
2007,09,14,14,50,16.50
2007,09,14,14,51,16.60
2007,09,14,14,52,16.60
2007,09,14,14,53,16.70
2007,09,14,14,54,16.70
2007,09,14,14,55,16.70
2007,09,14,14,56,16.70
2007,09,14,14,57,16.70
2007,09,14,14,58,16.70
2007,09,14,14,59,16.80
2007,09,14,15,00,16.80
2007,09,14,15,01,16.90
2007,09,14,15,02,16.90
2007,09,14,15,03,16.90
2007,09,14,15,04,16.90
2007,09,14,15,05,16.80
2007,09,14,15,06,16.80
2007,09,14,15,07,16.80
2007,09,14,15,08,16.80
2007,09,14,15,09,16.80
2007,09,14,15,10,16.80
2007,09,14,15,11,16.80
2007,09,14,15,12,16.80
2007,09,14,15,13,16.80
2007,09,14,15,14,16.70
2007,09,14,15,15,16.70
2007,09,14,15,16,16.70
2007,09,14,15,17,16.80
2007,09,14,15,18,16.80
2007,09,14,15,19,16.80
2007,09,14,15,20,16.80
2007,09,14,15,21,16.80
2007,09,14,15,22,16.80
2007,09,14,15,23,16.90
2007,09,14,15,24,16.80
2007,09,14,15,25,16.80
2007,09,14,15,26,16.90
2007,09,14,15,27,16.90
2007,09,14,15,28,17.00
2007,09,14,15,29,17.00
2007,09,14,15,30,17.00
2007,09,14,15,31,17.00
2007,09,14,15,32,17.00
2007,09,14,15,33,16.90
2007,09,14,15,34,16.90
2007,09,14,15,35,16.90
2007,09,14,15,36,16.90
2007,09,14,15,37,16.90
2007,09,14,15,38,16.90
2007,09,14,15,39,16.90
2007,09,14,15,40,16.90
2007,09,14,15,41,16.80
2007,09,14,15,42,16.80
2007,09,14,15,43,16.80
2007,09,14,15,44,16.90
2007,09,14,15,45,16.90
2007,09,14,15,46,16.90
2007,09,14,15,47,16.90
2007,09,14,15,48,16.90
2007,09,14,15,49,16.90
2007,09,14,15,50,16.90
2007,09,14,15,51,16.80
2007,09,14,15,52,16.80
2007,09,14,15,53,16.80
2007,09,14,15,54,16.80
2007,09,14,15,55,16.80
2007,09,14,15,56,16.80
2007,09,14,15,57,16.80
2007,09,14,15,58,16.90
2007,09,14,15,59,16.90
2007,09,14,16,00,16.90
2007,09,14,16,01,16.90
2007,09,14,16,02,16.90
2007,09,14,16,03,16.90
2007,09,14,16,04,16.90
2007,09,14,16,05,16.90
2007,09,14,16,06,16.80
2007,09,14,16,07,16.80
2007,09,14,16,08,16.80
2007,09,14,16,09,16.70
2007,09,14,16,10,16.60
2007,09,14,16,11,16.60
2007,09,14,16,12,16.60
2007,09,14,16,13,16.60
2007,09,14,16,14,16.60
2007,09,14,16,15,16.60
2007,09,14,16,16,16.60
2007,09,14,16,17,16.60
2007,09,14,16,18,16.50
2007,09,14,16,19,16.50
2007,09,14,16,20,16.50
2007,09,14,16,21,16.50
2007,09,14,16,22,16.40
2007,09,14,16,23,16.40
2007,09,14,16,24,16.30
2007,09,14,16,25,16.30
2007,09,14,16,26,16.30
2007,09,14,16,27,16.30
2007,09,14,16,28,16.20
2007,09,14,16,29,16.10
2007,09,14,16,30,16.00
2007,09,14,16,31,15.90
2007,09,14,16,32,15.90
2007,09,14,16,33,15.80
2007,09,14,16,34,15.80
2007,09,14,16,35,15.80
2007,09,14,16,36,15.80
2007,09,14,16,37,15.80
2007,09,14,16,38,15.80
2007,09,14,16,39,15.80
2007,09,14,16,40,15.80
2007,09,14,16,41,15.80
2007,09,14,16,42,15.80
2007,09,14,16,43,15.80
2007,09,14,16,44,15.80
2007,09,14,16,45,15.80
2007,09,14,16,46,15.80
2007,09,14,16,47,15.80
2007,09,14,16,48,15.80
2007,09,14,16,49,15.80
2007,09,14,16,50,15.80
2007,09,14,16,51,15.80
2007,09,14,16,52,15.80
2007,09,14,16,53,15.80
2007,09,14,16,54,15.80
2007,09,14,16,55,15.80
2007,09,14,16,56,15.80
2007,09,14,16,57,15.70
2007,09,14,16,58,15.70
2007,09,14,16,59,15.60
2007,09,14,17,00,15.60
2007,09,14,17,01,15.50
2007,09,14,17,02,15.40
2007,09,14,17,03,15.40
2007,09,14,17,04,15.50
2007,09,14,17,05,15.50
2007,09,14,17,06,15.50
2007,09,14,17,07,15.50
2007,09,14,17,08,15.50
2007,09,14,17,09,15.40
2007,09,14,17,10,15.40
2007,09,14,17,11,15.40
2007,09,14,17,12,15.40
2007,09,14,17,13,15.40
2007,09,14,17,14,15.30
2007,09,14,17,15,15.30
2007,09,14,17,16,15.30
2007,09,14,17,17,15.30
2007,09,14,17,18,15.30
2007,09,14,17,19,15.20
2007,09,14,17,20,15.20
2007,09,14,17,21,15.20
2007,09,14,17,22,15.20
2007,09,14,17,23,15.10
2007,09,14,17,24,15.10
2007,09,14,17,25,15.10
2007,09,14,17,26,15.00
2007,09,14,17,27,15.00
2007,09,14,17,28,15.00
2007,09,14,17,29,15.00
2007,09,14,17,30,15.00
2007,09,14,17,31,15.00